This is the latest recevied weather packets stored in our database for station/object OK1KKY-18. If no packets are shown the sender has not sent any weather packets the latest 10 day(s).
| Time | Temp. | Humidity | Pressure | Rain* | Wind** | Luminosity | Snow |
|---|---|---|---|---|---|---|---|
| 1787928446 | 25.56° C | 51% | 1015 hPa | - | - | - | - |
| 1787927846 | 25.56° C | 51% | 1015 hPa | - | - | - | - |
| 1787927246 | 26.11° C | 51% | 1015 hPa | - | - | - | - |
| 1787926646 | 26.11° C | 46% | 1015 hPa | - | - | - | - |
| 1787926046 | 25.56° C | 48% | 1015.4 hPa | - | - | - | - |
| 1787925446 | 25.56° C | 47% | 1014.8 hPa | - | - | - | - |
| 1787924846 | 25.56° C | 50% | 1015.1 hPa | - | - | - | - |
| 1787924246 | 25.56° C | 47% | 1014.7 hPa | - | - | - | - |
| 1787923646 | 25.56° C | 48% | 1014.5 hPa | - | - | - | - |
| 1787923046 | 25.56° C | 46% | 1014.6 hPa | - | - | - | - |
| 1787922446 | 25.56° C | 46% | 1014.8 hPa | - | - | - | - |
| 1787921846 | 25.56° C | 46% | 1015 hPa | - | - | - | - |
| 1787921246 | 25° C | 48% | 1014.8 hPa | - | - | - | - |
| 1787920646 | 25° C | 48% | 1015.1 hPa | - | - | - | - |
| 1787920046 | 24.44° C | 46% | 1014.9 hPa | - | - | - | - |
| 1787919446 | 25° C | 46% | 1015 hPa | - | - | - | - |
| 1787918846 | 25.56° C | 46% | 1014.8 hPa | - | - | - | - |
| 1787918246 | 25° C | 48% | 1015.2 hPa | - | - | - | - |
| 1787917646 | 25° C | 48% | 1015.1 hPa | - | - | - | - |
| 1787917046 | 25° C | 48% | 1015 hPa | - | - | - | - |
| 1787916446 | 24.44° C | 48% | 1015 hPa | - | - | - | - |
| 1787915846 | 24.44° C | 49% | 1015 hPa | - | - | - | - |
| 1787915246 | 23.89° C | 49% | 1015.1 hPa | - | - | - | - |
| 1787914646 | 23.89° C | 49% | 1015.1 hPa | - | - | - | - |
| 1787914046 | 23.33° C | 50% | 1014.9 hPa | - | - | - | - |
* Rain since midnight (hover to see other rain measurements)
** Current wind speed in m/s (hover to see current wind gust speed)